Showing default

IRIDIUM 161, 43478

Orbit data source: Space-Track

IRIDIUM 161, 43478 is a payload satellite owned by Iridium (US) in LEO that was launched on Tue, 22 May 2018 UTC via an FALCON 9 launch vehicle from the Air Force Western Test Range (AFWTR). Payload-class satellites include a variety of spacecraft equipped with specific instruments for various scientific and technological missions. These include communications satellites like Starlink; space stations such as the ISS; scientific satellites like the Hubble; Earth observation satellites from companies like Planet Labs, Umbra, and HawkEye 360; GPS; miniature CubeSats for education and research; and military/defense satellites.

Loading next visibility...
Identifier
43478, 2018-047C
Orbit
LEO
Country
Flag of USUS
Related business
Manufacturer
OATK SSG Gilbert
Mission
Operational Commercial Communications
Bus & Motor
ELITEBUS, Unknown motor
Mass
860 kg wet, 700 kg dry
Launch date (UTC)
2018-05-22 (7 years ago)
Launch vehicle
FALCON 9
Launch site
Air Force Western Test Range (AFWTR)
Object type
Payload
Rocket body
Debris
Shape & HBR
Trap Box + 2 Pan, 4.8 m
Radar Cross Section
10.154 m², Large (>1 m²)

Expand to show TLE details & history
Last TLE update: 12 hours ago

TLE from 12 hours ago
0 IRIDIUM 161
1 43478U 18047C   25315.12350575  .00000565  00000-0  16205-3 0  9993
2 43478  86.4532 179.5798 0002227  83.1344 277.0110 14.43289635393680
Epoch: 2025-11-11T02:57Z
TLE epoch observation values (Epoch: 2025-11-11T02:57:50.896Z)
Latitude
-0.00007°
Longitude
84.60315°
Altitude
750.521 km
Speed
7.479 km/s
True Right ascension
11h 58m 19s
True Declination
0° 00' 00"
Sunlit
Object was in daylight at epoch
Visualization orbit readout
Latitude
Unknown
Longitude
Unknown
Altitude
Unknown
Speed
Unknown
Apparent Right ascension
Unknown
Apparent Declination
Unknown
Sunlit
N/A
Visualization observer readout
Local Sidereal Time
11:15:29
Azimuth
Unknown
Elevation
Unknown
Doppler factor
Unknown
Orbital elements
Apogee altitude
746.187 km
Perigee altitude
743.014 km
Semi-major axis
7,122.738 km
Eccentricity
0.00022
Inclination
86.4532°
RAAN
179.5798°
Arg. of periapsis
83.1344°
True anomaly
276.98567°
Mean anomaly
277.011°
Eccentric anomaly
276.99834°
Mean motion
3.61054 °/min
Orbital period
99.71 mins
BSTAR
0.00016205
Loading maneuver chart data...
Computing Atmospheric mass density...
Loading historical data...
Loading historical data...
Loading historical data...
Loading historical data...
Loading historical data...
Loading historical data...
Loading historical data...

Documentation

Showing up to 5 results
|